[[{"header":{"parameterUnit":"m.s-1","parameterCategory":1,"la1":30.2991,"la2":30.254,"lo1":-89.0895,"lo2":-89.0444,"dy":0.0017,"dx":0.0017,"nx":28,"ny":28,"refTime":"2024-03-12T03:00:00:Z","depth":0,"parameterNumber":2,"parameterNumberName":"U-component_of_WINDS"},"data":[0,0,0,0,0,0,0,0,0,0,0,0,0,0,0,0,0,0,0,0,0,0,0,0,0,0,0,0,0,0,0,0,0,0,0,0,0,0,0,0,0,0,0,0,0,0,0,0,0,0,0,0,0,0,0,0,0,0,-3.9655,-3.9655,0,-3.9691,-3.9692,-3.9692,-3.9625,-3.9623,-3.962,-3.9618,-3.9657,-3.966,-3.9663,0,0,0,0,0,0,0,0,0,0,0,0,0,-3.953,-3.9532,-3.9655,-3.9655,-3.9656,-3.9691,-3.9692,-3.9692,-3.9625,-3.9622,-3.962,-3.9617,-3.9656,-3.966,-3.9663,0,0,0,0,0,0,0,0,0,0,0,0,0,-3.9577,-3.9533,-3.9655,-3.9627,-3.9624,-3.9691,-3.9692,-3.9692,-3.9626,-3.9622,-3.9619,-3.9616,-3.9655,-3.9659,-3.9664,-3.976,0,0,-3.9678,-3.968,0,0,0,0,0,0,0,0,-3.9574,-3.9582,-3.963,-3.9629,-3.9626,-3.965,-3.9662,-3.9715,-3.9627,-3.9625,-3.9618,-3.9614,-3.9657,-3.9662,-3.9676,-3.9762,-3.9764,-3.9679,-3.9681,-3.9683,-3.9685,0,0,0,0,0,0,0,-3.9571,-3.958,-3.9669,-3.9631,-3.9629,-3.9613,-3.9616,-3.9671,-3.966,-3.9625,-3.962,-3.9626,-3.9656,-3.9672,-3.9676,-3.9764,-3.9678,-3.9683,-3.9686,-3.9687,-3.9931,-3.9935,0,0,0,0,0,0,-3.9571,-3.9577,-3.9668,-3.967,-3.9591,-3.9618,-3.9621,-3.9646,-3.9659,-3.9658,-3.9628,-3.9622,-3.9665,-3.9671,-3.9677,-3.979,-3.9683,-3.9688,-3.969,-3.9927,-3.9932,-3.9936,0,0,0,0,0,0,-3.9569,-3.958,-3.9667,-3.9623,-3.9632,-3.9624,-3.9652,-3.9648,-3.9664,-3.9661,-3.9659,-3.9646,-3.9663,-3.9671,-3.974,-3.979,-3.969,-3.9694,-3.9923,-3.9929,-3.9934,-4.0016,0,0,0,0,0,0,-3.9565,-3.9579,-3.9615,-3.9624,-3.9635,-3.9728,-3.9655,-3.9651,-3.9672,-3.9664,-3.9678,-3.9677,-3.9661,-3.9733,-3.9745,-3.9795,-3.9698,-3.9918,-3.9926,-3.9932,-4.0009,-4.0024,-4.0036,0,0,0,0,0,-3.9561,-3.9637,-3.9617,-3.9628,-3.9679,-3.9731,-3.9737,-3.9717,-3.9676,-3.9712,-3.9711,-3.9676,-3.9784,-3.9741,-3.9753,-3.9805,-3.9915,-3.9924,-3.9932,-4.0002,-4.0021,-4.0036,0,0,0,0,0,0,-3.9634,-3.9637,-3.9615,-3.9696,-3.9714,-3.9719,-3.9763,-3.9737,-3.9766,-3.9758,-3.9732,-3.9736,-3.981,-3.9815,-3.9767,-3.99,-3.9843,-3.9854,-3.9892,-3.991,-3.9923,-3.9919,-3.9702,0,0,0,0,0,-3.966,-3.9701,-3.9702,-3.9773,-3.9783,-3.9772,-3.9794,-3.9777,-3.9794,-3.9801,-3.9805,-3.9823,-3.9861,-3.9886,-3.9921,-4.0011,-4.0012,-4.0053,-4.0067,-4.0078,-4.0087,-4.0134,-4.0152,-3.9963,-3.9963,-3.9963,0,0,-3.9713,-3.972,-3.9747,-3.9788,-3.9799,-3.9842,-3.9779,-3.9827,-3.9859,-3.9809,-3.9873,-3.9877,-3.9896,-3.9976,-4.0011,-3.9982,-4.014,-4.0089,-4.0098,-4.01,-4.0144,-4.0162,-4.0178,-3.9968,-3.9967,-3.9967,0,0,-3.983,-3.9841,-3.99,-3.9914,-3.9932,-3.9925,-3.994,-3.995,-3.995,-4.0015,-3.9978,-4.0017,-4.0082,-4.0097,-4.0113,-4.024,-4.0209,-4.0253,-4.0324,-4.037,-4.0385,-4.0398,-4.0441,-4.0457,-4.0262,-4.0263,-4.0263,0,-3.9893,-3.9956,-3.9935,-3.9986,-4.0005,-3.9962,-4.0023,-4.0037,-4.0066,-4.0081,-4.0049,-4.0131,-4.0141,-4.0223,-4.0254,-4.0269,-4.0285,-4.0249,-4.0384,-4.0397,-4.0409,-4.045,-4.0467,-4.0268,-4.0267,-4.0266,-4.0266,0,-4.0032,-4.0077,-4.0124,-4.0152,-4.0177,-4.0233,-4.022,-4.0249,-4.0231,-4.0228,-4.0295,-4.0306,-4.0342,-4.0361,-4.0344,-4.0441,-4.0422,-4.0389,-4.033,-4.0432,-4.047,-4.0486,-4.0275,-4.0273,-4.0271,-4.027,0,0,-4.0193,-4.0211,-4.0228,-4.024,-4.0259,-4.0293,-4.0348,-4.0383,-4.0407,-4.043,-4.0475,-4.0533,-4.0502,-4.052,-4.0506,-4.0547,-4.0645,-4.0507,-4.0507,-4.053,-4.0751,-4.0774,-4.0792,-4.0626,-4.0629,-4.0631,-4.0748,0,-4.0308,-4.04,-4.0384,-4.0474,-4.0515,-4.0477,-4.0525,-4.0542,-4.0541,-4.0576,-4.0576,-4.0617,-4.0574,-4.0584,-4.0624,-4.0624,-4.0688,-4.0616,-4.0666,-4.0668,-4.0659,-4.0813,-4.0837,-4.0946,-4.0763,-4.0766,-4.0768,0,-4.0453,-4.0481,-4.0575,-4.0588,-4.0604,-4.0647,-4.0678,-4.0713,-4.0732,-4.0729,-4.0751,-4.0729,-4.0784,-4.0729,-4.0804,-4.0756,-4.0776,-4.078,-4.0784,-4.0785,-4.0721,-4.0815,-4.0981,-4.0997,-4.0791,-4.0789,-4.0788,0,-4.0557,-4.0619,-4.0683,-4.0696,-4.0713,-4.0744,-4.0752,-4.0768,-4.0791,-4.0819,-4.0833,-4.0869,-4.0887,-4.0915,-4.0903,-4.0864,-4.0981,-4.0924,-4.0979,-4.0979,-4.1002,-4.1,-4.1171,-4.1021,-4.1021,-4.1021,-4.102,0,-4.0685,-4.0744,-4.073,-4.0769,-4.0834,-4.0817,-4.0882,-4.0886,-4.0901,-4.0941,-4.0912,-4.095,-4.0934,-4.0972,-4.0964,-4.1027,-4.1036,-4.1035,-4.1031,-4.1035,-4.1035,-4.1045,-4.1036,-4.1025,-4.1024,-4.1023,-4.1022,0,-4.0811,-4.0804,-4.0871,-4.0883,-4.0887,-4.0935,-4.0944,-4.0982,-4.098,-4.1031,-4.1042,-4.104,-4.1082,-4.1075,-4.1122,-4.1117,-4.1195,-4.1184,-4.1188,-4.1184,-4.1238,-4.1232,-4.1419,-4.1442,-4.128,-4.1282,-4.1283,0,-4.0891,-4.0935,-4.0952,-4.0976,-4.0987,-4.1027,-4.105,-4.1035,-4.1061,-4.1087,-4.1121,-4.1162,-4.1192,-4.1263,-4.1266,-4.1302,-4.129,-4.1353,-4.1295,-4.1298,-4.1287,-4.1283,-4.1287,-4.1363,-4.1365,-4.1366,-4.1368,0,-4.1033,-4.1028,-4.1062,-4.1095,-4.1123,-4.1149,-4.1172,-4.1194,-4.1182,-4.1212,-4.1255,-4.128,-4.1329,-4.1369,-4.1403,-4.1413,-4.1388,-4.1387,-4.1401,-4.1403,-4.1402,-4.1401,-4.1216,-4.1381,-4.138,-4.1379,-4.1378,-4.1378,-4.1136,-4.1173,-4.1191,-4.123,-4.1246,-4.1269,-4.1304,-4.1307,-4.1343,-4.1381,-4.1371,-4.142,-4.144,-4.1484,-4.1498,-4.1536,-4.1513,-4.1534,-4.1539,-4.1543,-4.1548,-4.14,-4.1543,-4.1543,-4.1542,-4.1542,-4.1542,0,-4.1274,-4.1284,-4.1321,-4.1353,-4.1385,-4.136,-4.1385,-4.1412,-4.1456,-4.1476,-4.1508,-4.1558,-4.1598,-4.1605,-4.1642,-4.1672,-4.1662,-4.1682,-4.1678,-4.168,-4.1568,-4.1551,-4.169,-4.169,-4.169,-4.169,-4.169,-4.169,-4.1349,-4.141,-4.1408,-4.1478,-4.1488,-4.1535,-4.1551,-4.1572,-4.1588,-4.1645,-4.1678,-4.1683,-4.1698,-4.1737,-4.1773,-4.1774,-4.1788,-4.1812,-4.1809,-4.1703,-4.1688,-4.1674,-4.1657,-4.1816,-4.1816,-4.1917,-4.1918,-4.1919]},{"header":{"parameterUnit":"m.s-1","parameterCategory":1,"la1":30.2991,"la2":30.254,"lo1":-89.0895,"lo2":-89.0444,"dy":0.0017,"dx":0.0017,"nx":28,"ny":28,"refTime":"2024-03-12T03:00:00:Z","depth":0,"parameterNumber":3,"parameterNumberName":"V-component_of_WINDS"},"data":[0,0,0,0,0,0,0,0,0,0,0,0,0,0,0,0,0,0,0,0,0,0,0,0,0,0,0,0,0,0,0,0,0,0,0,0,0,0,0,0,0,0,0,0,0,0,0,0,0,0,0,0,0,0,0,0,0,0,0.8391,0.8392,0,0.8439,0.844,0.8441,0.845,0.8449,0.8449,0.8448,0.8498,0.8499,0.8501,0,0,0,0,0,0,0,0,0,0,0,0,0,0.8308,0.831,0.8391,0.8392,0.8392,0.8439,0.844,0.8441,0.845,0.8449,0.8449,0.8448,0.8497,0.8499,0.8501,0,0,0,0,0,0,0,0,0,0,0,0,0,0.8349,0.831,0.8391,0.8402,0.8404,0.8439,0.844,0.8441,0.845,0.8449,0.8449,0.8448,0.8497,0.8499,0.8501,0.8529,0,0,0.8509,0.851,0,0,0,0,0,0,0,0,0.8347,0.8352,0.84,0.8402,0.8403,0.8438,0.8429,0.847,0.845,0.8432,0.8448,0.8448,0.8478,0.8482,0.8493,0.8531,0.8533,0.8509,0.8511,0.8512,0.8513,0,0,0,0,0,0,0,0.8344,0.835,0.841,0.8401,0.8403,0.8406,0.8411,0.8437,0.8458,0.8434,0.8435,0.844,0.8479,0.849,0.8494,0.8534,0.8509,0.8511,0.8513,0.8514,0.8599,0.86,0,0,0,0,0,0,0.8339,0.8348,0.8409,0.8412,0.8373,0.8408,0.8414,0.8427,0.8458,0.8462,0.8441,0.844,0.8486,0.8491,0.8496,0.8531,0.8512,0.8514,0.8516,0.8599,0.86,0.86,0,0,0,0,0,0,0.8337,0.8344,0.8407,0.838,0.8388,0.841,0.8425,0.8429,0.844,0.8463,0.8467,0.8448,0.8486,0.8492,0.8521,0.8533,0.8515,0.8518,0.8598,0.8599,0.86,0.86,0,0,0,0,0,0,0.8335,0.8344,0.8353,0.838,0.839,0.8431,0.8426,0.843,0.8444,0.8444,0.8471,0.8475,0.8486,0.8517,0.8523,0.8536,0.852,0.8597,0.8598,0.86,0.86,0.8602,0.8603,0,0,0,0,0,0.8332,0.8351,0.8354,0.8361,0.8402,0.8431,0.8437,0.8449,0.8445,0.8456,0.8471,0.8474,0.853,0.852,0.8527,0.854,0.8596,0.8598,0.8599,0.8599,0.8601,0.8603,0,0,0,0,0,0,0.8324,0.8355,0.8358,0.8386,0.8406,0.8433,0.8446,0.8451,0.8472,0.8472,0.8486,0.8492,0.8521,0.8534,0.8521,0.857,0.8563,0.8566,0.856,0.8563,0.8564,0.8561,0.8522,0,0,0,0,0,0.8326,0.8347,0.8372,0.8395,0.8405,0.8424,0.8437,0.8445,0.8466,0.8475,0.8492,0.8512,0.8535,0.855,0.8571,0.8602,0.8609,0.8615,0.8617,0.8618,0.862,0.8639,0.8643,0.8606,0.8606,0.8606,0,0,0.833,0.8349,0.8361,0.8394,0.841,0.8432,0.8431,0.8453,0.847,0.8478,0.8507,0.852,0.8544,0.8575,0.8589,0.8586,0.8632,0.862,0.8621,0.8623,0.8642,0.8645,0.8648,0.8607,0.8607,0.8607,0,0,0.8348,0.8364,0.8385,0.8402,0.8428,0.8441,0.8446,0.8472,0.8482,0.8511,0.8518,0.8539,0.8577,0.8594,0.8608,0.8636,0.864,0.8643,0.8652,0.8671,0.8674,0.8676,0.8687,0.8691,0.8645,0.8645,0.8645,0,0.8349,0.8382,0.8396,0.8419,0.8434,0.8444,0.8466,0.8482,0.8513,0.8524,0.852,0.857,0.8587,0.8622,0.863,0.864,0.8648,0.8639,0.8672,0.8675,0.8678,0.8688,0.8692,0.8646,0.8646,0.8646,0.8646,0,0.8383,0.8406,0.842,0.8451,0.8468,0.8491,0.8509,0.8525,0.8533,0.8546,0.8577,0.8598,0.8625,0.8634,0.8641,0.8672,0.8669,0.8669,0.8663,0.8681,0.8692,0.8696,0.8646,0.8646,0.8646,0.8646,0,0,0.8395,0.8436,0.8441,0.8456,0.8486,0.8504,0.8528,0.8556,0.857,0.8591,0.8613,0.8646,0.8647,0.8663,0.8672,0.8688,0.8711,0.8686,0.8687,0.8691,0.8747,0.8747,0.8752,0.8714,0.8715,0.8716,0.8745,0,0.8417,0.8461,0.8475,0.8511,0.8534,0.8545,0.8566,0.8587,0.8601,0.8623,0.8639,0.8663,0.8661,0.8671,0.8688,0.8705,0.8722,0.8703,0.8735,0.8736,0.8728,0.8757,0.8757,0.8784,0.8749,0.875,0.8751,0,0.8448,0.8472,0.851,0.854,0.855,0.8568,0.8596,0.8616,0.8642,0.8651,0.867,0.8679,0.8706,0.8699,0.8737,0.8723,0.8737,0.8748,0.875,0.8753,0.8744,0.8762,0.8793,0.8797,0.8757,0.8757,0.8756,0,0.8455,0.8496,0.8525,0.8538,0.8572,0.8586,0.8601,0.8625,0.8642,0.8666,0.8677,0.8704,0.8719,0.874,0.8757,0.875,0.8794,0.8788,0.8803,0.8803,0.8811,0.8811,0.8846,0.882,0.882,0.882,0.882,0,0.8478,0.8501,0.8529,0.8546,0.8574,0.8591,0.8618,0.8634,0.8656,0.8678,0.8689,0.8709,0.873,0.8754,0.8767,0.8797,0.8804,0.8813,0.8816,0.8812,0.8811,0.8821,0.882,0.8821,0.8821,0.8821,0.8821,0,0.8489,0.8508,0.8541,0.8572,0.8581,0.8599,0.8626,0.8645,0.8661,0.8688,0.8696,0.872,0.8749,0.8768,0.8804,0.8813,0.8846,0.8849,0.8838,0.8839,0.8854,0.8853,0.8897,0.8905,0.8874,0.8874,0.8874,0,0.8502,0.8521,0.8555,0.8571,0.8586,0.8611,0.8628,0.8647,0.8665,0.8697,0.8712,0.8741,0.8765,0.8811,0.8832,0.886,0.8864,0.8878,0.8868,0.8864,0.8865,0.8864,0.8867,0.8879,0.8879,0.8879,0.8879,0,0.8524,0.8534,0.8558,0.8587,0.8608,0.8631,0.8655,0.8667,0.8691,0.871,0.874,0.8759,0.8797,0.8827,0.8857,0.8874,0.8881,0.8883,0.8888,0.8884,0.8877,0.8882,0.8842,0.8881,0.8881,0.8881,0.8881,0.8881,0.8538,0.8556,0.8583,0.8611,0.8631,0.8653,0.8673,0.8692,0.8717,0.875,0.876,0.8791,0.8818,0.886,0.8877,0.8903,0.8901,0.8908,0.891,0.8912,0.8913,0.8873,0.8908,0.8908,0.8908,0.8908,0.8908,0,0.8561,0.858,0.8606,0.8639,0.8661,0.8667,0.8694,0.8713,0.874,0.8765,0.879,0.8825,0.8855,0.8879,0.891,0.8926,0.893,0.8933,0.8932,0.8936,0.8912,0.8904,0.8929,0.8929,0.8929,0.8929,0.8929,0.8929,0.8576,0.8607,0.862,0.8662,0.8681,0.8712,0.8728,0.8749,0.8769,0.8808,0.8833,0.8849,0.8875,0.8908,0.8936,0.8942,0.8953,0.8956,0.8963,0.894,0.8937,0.8935,0.8929,0.8958,0.8958,0.8986,0.8986,0.8986]}]]